Location: 10033 Water Well
(34.0865°N, 106.8959°W)
Time: 22:46:09
(UTC+00:00)

Cosmos 2056 Rocket - Pass Details

Date: 13 January 2026
Orbit: 739 x 795 km, 74.0° (Epoch: 11 February)

Event Time Altitude Azimuth Distance (km) Brightness Sun altitude
Rises 00:41:04 0° 203° (SSW) 3,205 7.5 -5.1°
Reaches altitude 10° 00:43:28 10° 206° (SSW) 2,274 6.8 -5.5°
Maximum altitude 00:48:34 65° 288° (WNW) 821 3.9 -6.5°
Drops below altitude 10° 00:53:39 10° 11° (N) 2,259 5.6 -7.5°
Sets 00:56:01 0° 14° (NNE) 3,182 6.4 -7.9°
